• In Romania
  • List of Countries
  • For 7 days
  • Water Temperature
  • Satellite Maps
  • Weather Map
  • Weather Widgets
  • user-avatar
    Login

    Hourly Weather Istria

    Today, 25 September, Tuesday

    Time Temperature Precipitation Wind Pressure Humidity
    00:00 +12°C° 0 mm 10 mps 763 mmHg 51%
    01:00 +12°C° 0 mm 10 mps 764 mmHg 51%
    02:00 +11°C° 0 mm 9 mps 764 mmHg 52%
    03:00 +11°C° 0 mm 9 mps 764 mmHg 54%
    04:00 +11°C° 0 mm 9 mps 764 mmHg 56%
    05:00 +11°C° 0 mm 9 mps 764 mmHg 57%
    06:00 +11°C° 0 mm 8 mps 765 mmHg 58%
    07:00 +11°C° 0 mm 8 mps 765 mmHg 59%
    08:00 +12°C° 0 mm 8 mps 765 mmHg 54%
    09:00 +14°C° 0 mm 7 mps 765 mmHg 50%
    10:00 +16°C° 0 mm 7 mps 765 mmHg 45%
    11:00 +16°C° 0 mm 7 mps 765 mmHg 44%
    12:00 +17°C° 0 mm 7 mps 765 mmHg 44%
    13:00 +17°C° 0 mm 6 mps 765 mmHg 43%
    14:00 +17°C° 0 mm 6 mps 765 mmHg 43%
    15:00 +17°C° 0 mm 6 mps 765 mmHg 44%
    16:00 +16°C° 0 mm 6 mps 765 mmHg 45%
    17:00 +15°C° 0 mm 7 mps 766 mmHg 46%
    18:00 +14°C° 0 mm 7 mps 766 mmHg 47%
    19:00 +12°C° 0 mm 8 mps 767 mmHg 49%
    20:00 +11°C° 0 mm 8 mps 767 mmHg 49%
    21:00 +11°C° 0 mm 8 mps 768 mmHg 49%
    22:00 +11°C° 0 mm 9 mps 768 mmHg 49%
    23:00 +10°C° 0 mm 9 mps 769 mmHg 50%

    Tomorrow, 26 September, Wednesday

    Time Temperature Precipitation Wind Pressure Humidity
    00:00 +10°C° 0 mm 9 mps 769 mmHg 51%
    01:00 +10°C° 0 mm 9 mps 769 mmHg 52%
    02:00 +9°C° 0 mm 8 mps 769 mmHg 54%
    03:00 +9°C° 0 mm 8 mps 769 mmHg 56%
    04:00 +7°C° 0 mm 8 mps 769 mmHg 58%
    05:00 +8°C° 0 mm 7 mps 769 mmHg 59%
    06:00 +9°C° 0 mm 6 mps 769 mmHg 60%
    07:00 +9°C° 0 mm 6 mps 769 mmHg 61%
    08:00 +10°C° 0 mm 5 mps 769 mmHg 55%
    09:00 +13°C° 0 mm 5 mps 769 mmHg 49%
    10:00 +15°C° 0 mm 5 mps 769 mmHg 43%
    11:00 +17°C° 0 mm 4 mps 768 mmHg 40%
    12:00 +18°C° 0 mm 4 mps 768 mmHg 37%
    13:00 +19°C° 0 mm 3 mps 768 mmHg 34%
    14:00 +19°C° 0 mm 3 mps 767 mmHg 35%
    15:00 +19°C° 0 mm 2 mps 767 mmHg 36%
    16:00 +19°C° 0 mm 2 mps 766 mmHg 37%
    17:00 +17°C° 0 mm 2 mps 766 mmHg 42%
    18:00 +16°C° 0 mm 2 mps 767 mmHg 48%
    19:00 +13°C° 0 mm 3 mps 767 mmHg 54%
    20:00 +13°C° 0 mm 3 mps 767 mmHg 56%
    21:00 +12°C° 0 mm 3 mps 767 mmHg 58%
    22:00 +12°C° 0 mm 3 mps 767 mmHg 59%
    23:00 +12°C° 0 mm 3 mps 767 mmHg 58%

    Day after tomorrow, 27 September, Thursday

    Time Temperature Precipitation Wind Pressure Humidity
    00:00 +12°C° 0 mm 3 mps 767 mmHg 57%
    01:00 +11°C° 0 mm 3 mps 766 mmHg 55%
    02:00 +11°C° 0 mm 3 mps 766 mmHg 54%
    03:00 +11°C° 0 mm 3 mps 766 mmHg 53%
    04:00 +11°C° 0 mm 3 mps 765 mmHg 52%
    05:00 +12°C° 0 mm 3 mps 765 mmHg 51%
    06:00 +12°C° 0 mm 3 mps 765 mmHg 51%
    07:00 +13°C° 0 mm 3 mps 765 mmHg 50%
    08:00 +16°C° 0 mm 3 mps 765 mmHg 44%
    09:00 +19°C° 0 mm 3 mps 765 mmHg 38%
    10:00 +22°C° 0 mm 3 mps 764 mmHg 32%
    11:00 +24°C° 0 mm 3 mps 764 mmHg 30%
    12:00 +25°C° 0 mm 3 mps 764 mmHg 28%
    13:00 +26°C° 0 mm 3 mps 763 mmHg 26%
    14:00 +26°C° 0 mm 3 mps 763 mmHg 30%
    15:00 +25°C° 0 mm 3 mps 762 mmHg 34%
    16:00 +25°C° 0 mm 3 mps 762 mmHg 37%
    17:00 +22°C° 0 mm 3 mps 761 mmHg 42%
    18:00 +20°C° 0 mm 4 mps 761 mmHg 46%
    19:00 +18°C° 0 mm 4 mps 761 mmHg 51%
    20:00 +17°C° 0 mm 4 mps 761 mmHg 50%
    21:00 +17°C° 0 mm 4 mps 761 mmHg 49%
    22:00 +15°C° 0 mm 4 mps 761 mmHg 47%
    23:00 +15°C° 0 mm 4 mps 760 mmHg 47%

    28 September, Friday

    Time Temperature Precipitation Wind Pressure Humidity
    00:00 +15°C° 0 mm 4 mps 760 mmHg 46%
    01:00 +15°C° 0 mm 4 mps 759 mmHg 45%
    02:00 +15°C° 0 mm 4 mps 759 mmHg 46%
    03:00 +15°C° 0 mm 4 mps 758 mmHg 47%
    04:00 +15°C° 0 mm 4 mps 758 mmHg 48%
    05:00 +16°C° 0 mm 3 mps 758 mmHg 49%
    06:00 +16°C° 0 mm 3 mps 757 mmHg 50%
    07:00 +16°C° 0 mm 3 mps 757 mmHg 51%
    08:00 +18°C° 0 mm 3 mps 757 mmHg 46%
    09:00 +21°C° 0 mm 3 mps 757 mmHg 41%
    10:00 +24°C° 0 mm 3 mps 757 mmHg 36%
    11:00 +25°C° 0 mm 3 mps 756 mmHg 35%
    12:00 +26°C° 0 mm 3 mps 756 mmHg 35%
    13:00 +27°C° 0 mm 3 mps 755 mmHg 34%
    14:00 +27°C° 0 mm 3 mps 755 mmHg 37%
    15:00 +26°C° 0 mm 3 mps 754 mmHg 40%
    16:00 +26°C° 0 mm 3 mps 754 mmHg 43%
    17:00 +24°C° 0 mm 3 mps 754 mmHg 48%
    18:00 +21°C° 0 mm 3 mps 754 mmHg 53%
    19:00 +19°C° 0 mm 4 mps 754 mmHg 57%
    20:00 +19°C° 0 mm 4 mps 754 mmHg 57%
    21:00 +18°C° 0 mm 4 mps 754 mmHg 56%
    22:00 +18°C° 0 mm 4 mps 755 mmHg 56%
    23:00 +18°C° 0 mm 4 mps 754 mmHg 57%

    29 September, Saturday

    Time Temperature Precipitation Wind Pressure Humidity
    00:00 +17°C° 0 mm 4 mps 754 mmHg 57%
    01:00 +17°C° 0 mm 3 mps 754 mmHg 58%
    02:00 +17°C° 0 mm 3 mps 754 mmHg 59%
    03:00 +17°C° 0 mm 3 mps 754 mmHg 59%
    04:00 +17°C° 0 mm 4 mps 754 mmHg 60%
    05:00 +17°C° 0 mm 4 mps 754 mmHg 59%
    06:00 +17°C° 0 mm 4 mps 754 mmHg 59%
    07:00 +17°C° 0 mm 5 mps 754 mmHg 58%
    08:00 +19°C° 0 mm 5 mps 755 mmHg 54%
    09:00 +21°C° 0 mm 6 mps 755 mmHg 50%
    10:00 +22°C° 0 mm 6 mps 755 mmHg 46%
    11:00 +23°C° 0 mm 6 mps 755 mmHg 47%
    12:00 +23°C° 0 mm 6 mps 755 mmHg 47%
    13:00 +23°C° 0 mm 6 mps 755 mmHg 47%
    14:00 +23°C° 0 mm 6 mps 755 mmHg 50%
    15:00 +22°C° 0 mm 7 mps 755 mmHg 53%
    16:00 +22°C° 0 mm 7 mps 755 mmHg 56%
    17:00 +21°C° 0 mm 7 mps 755 mmHg 58%
    18:00 +18°C° 0 mm 8 mps 756 mmHg 61%
    19:00 +17°C° 0 mm 8 mps 756 mmHg 64%
    20:00 +17°C° 0 mm 8 mps 756 mmHg 62%
    21:00 +17°C° 0 mm 9 mps 757 mmHg 60%
    22:00 +16°C° 0 mm 9 mps 757 mmHg 59%
    23:00 +16°C° 0 mm 8 mps 757 mmHg 57%

    30 September, Sunday

    Time Temperature Precipitation Wind Pressure Humidity
    00:00 +15°C° 0 mm 8 mps 757 mmHg 56%
    01:00 +15°C° 0 mm 7 mps 757 mmHg 54%
    02:00 +14°C° 0 mm 7 mps 757 mmHg 55%
    03:00 +14°C° 0 mm 6 mps 757 mmHg 57%
    04:00 +13°C° 0 mm 6 mps 757 mmHg 58%
    05:00 +13°C° 0 mm 5 mps 757 mmHg 59%
    06:00 +13°C° 0 mm 5 mps 757 mmHg 60%
    07:00 +13°C° 0 mm 4 mps 757 mmHg 62%
    08:00 +15°C° 0 mm 4 mps 757 mmHg 57%
    09:00 +18°C° 0 mm 3 mps 757 mmHg 53%
    10:00 +20°C° 0 mm 3 mps 757 mmHg 48%
    11:00 +21°C° 0 mm 2 mps 757 mmHg 46%
    12:00 +24°C° 0 mm 2 mps 756 mmHg 44%
    13:00 +25°C° 0 mm 1 mps 756 mmHg 41%
    14:00 +24°C° 0 mm 1 mps 756 mmHg 43%
    15:00 +24°C° 0 mm 1 mps 755 mmHg 45%
    16:00 +23°C° 0 mm 1 mps 755 mmHg 47%
    17:00 +21°C° 0 mm 1 mps 755 mmHg 53%
    18:00 +20°C° 0 mm 1 mps 756 mmHg 59%
    19:00 +18°C° 0 mm 1 mps 756 mmHg 66%
    20:00 +18°C° 0 mm 1 mps 756 mmHg 68%
    21:00 +16°C° 0 mm 2 mps 756 mmHg 71%
    22:00 +16°C° 0 mm 2 mps 756 mmHg 73%
    23:00 +16°C° 0 mm 2 mps 756 mmHg 74%
    Show more